N5771J KTEX-KAPA

Flight info

Callsign N5771J
Flight time 1h 31m
Altitude 17000
Route ETL MTJ HBU POWDR1
Aircraft T210/L-VGD/C

Departure

Time 2026-05-07 02:34
Airport Telluride Regional Airport (KTEX)

Arrival

Time 2026-05-07 04:05
Airport Centennial Airport (KAPA)
Time Latitude Longitude Altitude Speed Heading
2026-05-07 02:05 37.95469 -107.90265 9053 ft 0 kts 100°
2026-05-07 02:28 37.95457 -107.90249 9053 ft 7 kts 156°
2026-05-07 02:28 37.95395 -107.90259 9053 ft 10 kts 197°
2026-05-07 02:28 37.95355 -107.90205 9053 ft 10 kts 103°
2026-05-07 02:28 37.95339 -107.90121 9053 ft 10 kts 105°
2026-05-07 02:29 37.95321 -107.90041 9054 ft 8 kts 107°
2026-05-07 02:29 37.95310 -107.89992 9056 ft 4 kts 106°
2026-05-07 02:29 37.95298 -107.89937 9059 ft 10 kts 105°
2026-05-07 02:29 37.95279 -107.89849 9063 ft 9 kts 104°
2026-05-07 02:30 37.95266 -107.89786 9066 ft 6 kts 104°
2026-05-07 02:30 37.95260 -107.89756 9067 ft 1 kts 104°
2026-05-07 02:30 37.95260 -107.89754 9067 ft 0 kts 104°
2026-05-07 02:30 37.95250 -107.89708 9069 ft 9 kts 104°
2026-05-07 02:31 37.95237 -107.89672 9071 ft 0 kts 137°
2026-05-07 02:32 37.95188 -107.89662 9071 ft 15 kts 179°
2026-05-07 02:32 37.95132 -107.89698 9069 ft 1 kts 270°
2026-05-07 02:32 37.95133 -107.89699 9069 ft 0 kts 282°
2026-05-07 02:32 37.95133 -107.89701 9069 ft 4 kts 282°
2026-05-07 02:33 37.95190 -107.89967 9057 ft 57 kts 285°
2026-05-07 02:33 37.95331 -107.90632 9033 ft 96 kts 285°
2026-05-07 02:33 37.95519 -107.91548 9074 ft 119 kts 284°
2026-05-07 02:33 37.95751 -107.92630 9256 ft 132 kts 285°
2026-05-07 02:34 37.96009 -107.93799 9486 ft 143 kts 286°
2026-05-07 02:34 37.96282 -107.95030 9737 ft 146 kts 287°
2026-05-07 02:34 37.96549 -107.96276 10022 ft 147 kts 287°
2026-05-07 02:34 37.96815 -107.97524 10285 ft 146 kts 293°
2026-05-07 02:35 37.97191 -107.98709 10385 ft 148 kts 297°
2026-05-07 02:35 37.97576 -107.99926 10618 ft 149 kts 296°
2026-05-07 02:35 37.97922 -108.01161 10818 ft 149 kts 295°
2026-05-07 02:35 37.98250 -108.02433 11013 ft 154 kts 293°
2026-05-07 02:36 37.98569 -108.03725 11206 ft 151 kts 292°
2026-05-07 02:36 37.98866 -108.04973 11494 ft 144 kts 292°
2026-05-07 02:36 37.99165 -108.06154 11761 ft 137 kts 294°
2026-05-07 02:36 37.99444 -108.07276 12009 ft 129 kts 294°
2026-05-07 02:37 37.99702 -108.08321 12281 ft 123 kts 295°
2026-05-07 02:37 37.99952 -108.09348 12471 ft 123 kts 295°
2026-05-07 02:37 38.00185 -108.10408 12627 ft 125 kts 294°
2026-05-07 02:37 38.00459 -108.11455 12771 ft 125 kts 298°
2026-05-07 02:38 38.00736 -108.12515 12929 ft 128 kts 297°
2026-05-07 02:38 38.01006 -108.13593 13090 ft 129 kts 297°
2026-05-07 02:38 38.01277 -108.14688 13276 ft 131 kts 297°
2026-05-07 02:38 38.01552 -108.15797 13432 ft 132 kts 296°
2026-05-07 02:39 38.01732 -108.16535 13535 ft 132 kts 297°
2026-05-07 02:39 38.02097 -108.18016 13754 ft 133 kts 297°
2026-05-07 02:39 38.02374 -108.19138 13912 ft 134 kts 297°
2026-05-07 02:39 38.02651 -108.20267 14062 ft 134 kts 297°
2026-05-07 02:40 38.02924 -108.21392 14198 ft 133 kts 296°
2026-05-07 02:40 38.03097 -108.22149 14291 ft 132 kts 298°
2026-05-07 02:40 38.03374 -108.23237 14428 ft 131 kts 298°
2026-05-07 02:40 38.03668 -108.24335 14554 ft 128 kts 305°
2026-05-07 02:41 38.04290 -108.25021 14681 ft 117 kts 344°
2026-05-07 02:41 38.05085 -108.25016 14821 ft 118 kts 17°
2026-05-07 02:41 38.05805 -108.24491 14970 ft 120 kts 25°
2026-05-07 02:41 38.06523 -108.23947 15123 ft 121 kts 25°
2026-05-07 02:42 38.07172 -108.23255 15239 ft 132 kts 52°
2026-05-07 02:42 38.07511 -108.22165 15393 ft 133 kts 57°
2026-05-07 02:42 38.07860 -108.21085 15544 ft 132 kts 56°
2026-05-07 02:42 38.08206 -108.20019 15692 ft 132 kts 56°
2026-05-07 02:43 38.08558 -108.18939 15842 ft 133 kts 56°
2026-05-07 02:43 38.08921 -108.17855 15990 ft 133 kts 54°
2026-05-07 02:43 38.09298 -108.16783 16142 ft 133 kts 55°
2026-05-07 02:43 38.09663 -108.15696 16302 ft 134 kts 56°
2026-05-07 02:44 38.10022 -108.14600 16453 ft 134 kts 56°
2026-05-07 02:44 38.10379 -108.13503 16602 ft 135 kts 56°
2026-05-07 02:44 38.10736 -108.12403 16761 ft 135 kts 56°
2026-05-07 02:44 38.11095 -108.11298 16903 ft 137 kts 55°
2026-05-07 02:45 38.11462 -108.10167 16951 ft 141 kts 56°
2026-05-07 02:45 38.11845 -108.08990 16984 ft 147 kts 57°
2026-05-07 02:45 38.12242 -108.07763 16996 ft 151 kts 57°
2026-05-07 02:45 38.12633 -108.06545 16986 ft 150 kts 57°
2026-05-07 02:46 38.13032 -108.05305 16994 ft 149 kts 57°
2026-05-07 02:46 38.13425 -108.04089 16988 ft 149 kts 57°
2026-05-07 02:46 38.13816 -108.02880 16983 ft 148 kts 57°
2026-05-07 02:46 38.14204 -108.01679 16992 ft 147 kts 57°
2026-05-07 02:47 38.14587 -108.00493 17006 ft 146 kts 57°
2026-05-07 02:47 38.14973 -107.99298 17008 ft 146 kts 57°
2026-05-07 02:47 38.15360 -107.98105 17006 ft 146 kts 57°
2026-05-07 02:47 38.15747 -107.96916 16997 ft 145 kts 56°
2026-05-07 02:48 38.16131 -107.95737 16995 ft 143 kts 56°
2026-05-07 02:48 38.16508 -107.94580 16987 ft 141 kts 56°
2026-05-07 02:48 38.16882 -107.93433 16984 ft 139 kts 56°
2026-05-07 02:48 38.17246 -107.92313 16995 ft 136 kts 56°
2026-05-07 02:49 38.17609 -107.91202 17041 ft 137 kts 56°
2026-05-07 02:49 38.17986 -107.90070 17047 ft 141 kts 55°
2026-05-07 02:49 38.18378 -107.88916 17040 ft 144 kts 55°
2026-05-07 02:49 38.18781 -107.87746 17031 ft 145 kts 55°
2026-05-07 02:50 38.19192 -107.86567 17019 ft 146 kts 55°
2026-05-07 02:50 38.19606 -107.85386 17016 ft 146 kts 55°
2026-05-07 02:50 38.20023 -107.84206 17006 ft 147 kts 55°
2026-05-07 02:50 38.20445 -107.83020 17010 ft 147 kts 55°
2026-05-07 02:51 38.20871 -107.81830 17012 ft 148 kts 55°
2026-05-07 02:51 38.21301 -107.80639 16998 ft 148 kts 55°
2026-05-07 02:51 38.21735 -107.79444 16999 ft 149 kts 55°
2026-05-07 02:51 38.22165 -107.78267 17000 ft 149 kts 54°
2026-05-07 02:52 38.22604 -107.77073 17003 ft 149 kts 54°
2026-05-07 02:52 38.23045 -107.75878 17001 ft 149 kts 54°
2026-05-07 02:52 38.23487 -107.74689 16996 ft 148 kts 54°
2026-05-07 02:52 38.23931 -107.73500 17013 ft 149 kts 54°
2026-05-07 02:53 38.24374 -107.72316 16991 ft 147 kts 54°
2026-05-07 02:53 38.24815 -107.71144 16990 ft 146 kts 54°
2026-05-07 02:53 38.25246 -107.70000 17006 ft 145 kts 54°
2026-05-07 02:53 38.25688 -107.68834 17025 ft 147 kts 54°
2026-05-07 02:54 38.26139 -107.67657 17011 ft 148 kts 53°
2026-05-07 02:54 38.26594 -107.66476 17007 ft 148 kts 53°
2026-05-07 02:54 38.27048 -107.65303 16997 ft 148 kts 53°
2026-05-07 02:54 38.27502 -107.64134 16997 ft 147 kts 53°
2026-05-07 02:55 38.27919 -107.62958 16981 ft 145 kts 57°
2026-05-07 02:55 38.28275 -107.61762 17010 ft 144 kts 58°
2026-05-07 02:55 38.28632 -107.60558 17033 ft 147 kts 58°
2026-05-07 02:55 38.28994 -107.59332 17040 ft 149 kts 58°
2026-05-07 02:56 38.29363 -107.58087 17040 ft 152 kts 59°
2026-05-07 02:56 38.29737 -107.56826 17027 ft 153 kts 59°
2026-05-07 02:56 38.30110 -107.55558 17014 ft 153 kts 59°
2026-05-07 02:56 38.30482 -107.54298 17003 ft 151 kts 58°
2026-05-07 02:57 38.30850 -107.53048 17006 ft 150 kts 58°
2026-05-07 02:57 38.31220 -107.51800 17031 ft 151 kts 59°
2026-05-07 02:57 38.31591 -107.50541 17023 ft 152 kts 59°
2026-05-07 02:57 38.31959 -107.49295 17016 ft 152 kts 59°
2026-05-07 02:58 38.32332 -107.48032 17014 ft 152 kts 59°
2026-05-07 02:58 38.32702 -107.46775 17021 ft 152 kts 59°
2026-05-07 02:58 38.33072 -107.45518 17022 ft 151 kts 59°
2026-05-07 02:58 38.33440 -107.44267 17023 ft 151 kts 59°
2026-05-07 02:59 38.33810 -107.43010 17034 ft 152 kts 59°
2026-05-07 02:59 38.34182 -107.41747 17036 ft 153 kts 59°
2026-05-07 02:59 38.34556 -107.40476 17033 ft 154 kts 59°
2026-05-07 02:59 38.34930 -107.39202 17035 ft 154 kts 59°
2026-05-07 03:00 38.35305 -107.37927 17023 ft 153 kts 59°
2026-05-07 03:00 38.35675 -107.36663 17023 ft 152 kts 59°
2026-05-07 03:00 38.36046 -107.35401 17017 ft 152 kts 59°
2026-05-07 03:00 38.36415 -107.34142 17031 ft 152 kts 59°
2026-05-07 03:01 38.36787 -107.32877 17036 ft 152 kts 59°
2026-05-07 03:01 38.37157 -107.31611 17026 ft 152 kts 59°
2026-05-07 03:01 38.37521 -107.30368 17027 ft 151 kts 59°
2026-05-07 03:01 38.37890 -107.29108 17026 ft 151 kts 59°
2026-05-07 03:02 38.38259 -107.27850 17038 ft 152 kts 59°
2026-05-07 03:02 38.38628 -107.26587 17042 ft 152 kts 59°
2026-05-07 03:02 38.38995 -107.25329 17021 ft 151 kts 59°
2026-05-07 03:02 38.39361 -107.24076 17036 ft 150 kts 59°
2026-05-07 03:03 38.39727 -107.22824 17045 ft 150 kts 59°
2026-05-07 03:03 38.40093 -107.21573 17042 ft 151 kts 59°
2026-05-07 03:03 38.40458 -107.20320 17044 ft 150 kts 59°
2026-05-07 03:03 38.40822 -107.19072 17050 ft 150 kts 59°
2026-05-07 03:04 38.41186 -107.17824 17053 ft 150 kts 59°
2026-05-07 03:04 38.41550 -107.16577 17061 ft 150 kts 59°
2026-05-07 03:04 38.41910 -107.15332 17057 ft 148 kts 59°
2026-05-07 03:04 38.42270 -107.14098 17066 ft 149 kts 59°
2026-05-07 03:05 38.42629 -107.12872 17066 ft 150 kts 59°
2026-05-07 03:05 38.42998 -107.11604 17063 ft 151 kts 59°
2026-05-07 03:05 38.43362 -107.10351 17066 ft 151 kts 59°
2026-05-07 03:05 38.43727 -107.09095 17073 ft 151 kts 59°
2026-05-07 03:06 38.44145 -107.07906 17065 ft 145 kts 47°
2026-05-07 03:06 38.44545 -107.06703 17068 ft 148 kts 62°
2026-05-07 03:06 38.44837 -107.05436 17078 ft 149 kts 62°
2026-05-07 03:06 38.45167 -107.04177 17088 ft 147 kts 60°
2026-05-07 03:07 38.45567 -107.03015 17095 ft 146 kts 57°
2026-05-07 03:07 38.45946 -107.01801 17100 ft 148 kts 58°
2026-05-07 03:07 38.46339 -107.00577 17091 ft 149 kts 57°
2026-05-07 03:07 38.46740 -106.99351 17097 ft 150 kts 57°
2026-05-07 03:08 38.47143 -106.98123 17089 ft 150 kts 57°
2026-05-07 03:08 38.47548 -106.96895 17085 ft 150 kts 57°
2026-05-07 03:08 38.47952 -106.95666 17082 ft 150 kts 57°
2026-05-07 03:08 38.48356 -106.94438 17085 ft 150 kts 57°
2026-05-07 03:09 38.48761 -106.93211 17085 ft 150 kts 57°
2026-05-07 03:09 38.49166 -106.91981 17088 ft 150 kts 57°
2026-05-07 03:09 38.49572 -106.90744 17098 ft 151 kts 57°
2026-05-07 03:09 38.49978 -106.89511 17087 ft 151 kts 57°
2026-05-07 03:10 38.50383 -106.88277 17081 ft 150 kts 57°
2026-05-07 03:10 38.50787 -106.87046 17014 ft 150 kts 57°
2026-05-07 03:10 38.51187 -106.85829 17020 ft 150 kts 57°
2026-05-07 03:10 38.51591 -106.84597 17016 ft 150 kts 57°
2026-05-07 03:11 38.51994 -106.83367 17018 ft 150 kts 57°
2026-05-07 03:11 38.52397 -106.82138 17020 ft 150 kts 57°
2026-05-07 03:11 38.52801 -106.80904 17017 ft 150 kts 57°
2026-05-07 03:11 38.53204 -106.79673 17018 ft 150 kts 57°
2026-05-07 03:12 38.53607 -106.78443 17012 ft 150 kts 57°
2026-05-07 03:12 38.54008 -106.77218 17016 ft 149 kts 57°
2026-05-07 03:12 38.54410 -106.75992 17016 ft 150 kts 57°
2026-05-07 03:12 38.54814 -106.74757 17013 ft 151 kts 57°
2026-05-07 03:13 38.55219 -106.73515 17002 ft 151 kts 57°
2026-05-07 03:13 38.55622 -106.72281 16994 ft 150 kts 57°
2026-05-07 03:13 38.56023 -106.71052 17000 ft 150 kts 57°
2026-05-07 03:13 38.56423 -106.69826 17022 ft 150 kts 57°
2026-05-07 03:14 38.56824 -106.68598 17013 ft 150 kts 57°
2026-05-07 03:14 38.57225 -106.67368 17005 ft 150 kts 57°
2026-05-07 03:14 38.58019 -106.64930 16987 ft 147 kts 58°
2026-05-07 03:15 38.58403 -106.63751 17000 ft 145 kts 57°
2026-05-07 03:15 38.58791 -106.62560 16993 ft 145 kts 57°
2026-05-07 03:15 38.59179 -106.61370 16996 ft 145 kts 57°
2026-05-07 03:15 38.59567 -106.60177 16994 ft 145 kts 57°
2026-05-07 03:16 38.59955 -106.58982 16985 ft 145 kts 57°
2026-05-07 03:16 38.60341 -106.57792 16994 ft 143 kts 57°
2026-05-07 03:16 38.60728 -106.56606 17016 ft 147 kts 57°
2026-05-07 03:16 38.61125 -106.55388 17002 ft 149 kts 57°
2026-05-07 03:17 38.61522 -106.54161 17005 ft 149 kts 57°
2026-05-07 03:17 38.61923 -106.52926 16995 ft 151 kts 57°
2026-05-07 03:17 38.62322 -106.51692 16978 ft 149 kts 57°
2026-05-07 03:17 38.62717 -106.50474 16970 ft 147 kts 57°
2026-05-07 03:18 38.63099 -106.49292 16980 ft 145 kts 57°
2026-05-07 03:18 38.63484 -106.48105 16977 ft 144 kts 57°
2026-05-07 03:18 38.63870 -106.46915 16985 ft 145 kts 56°
2026-05-07 03:18 38.64257 -106.45722 17011 ft 147 kts 57°
2026-05-07 03:19 38.64647 -106.44515 16995 ft 146 kts 57°
2026-05-07 03:19 38.65035 -106.43309 17026 ft 147 kts 57°
2026-05-07 03:19 38.65424 -106.42101 17012 ft 147 kts 56°
2026-05-07 03:19 38.65819 -106.40892 16975 ft 146 kts 57°
2026-05-07 03:20 38.66205 -106.39693 17009 ft 146 kts 57°
2026-05-07 03:20 38.66591 -106.38496 17019 ft 148 kts 57°
2026-05-07 03:20 38.66987 -106.37273 17008 ft 149 kts 57°
2026-05-07 03:20 38.67387 -106.36036 17038 ft 152 kts 57°
2026-05-07 03:21 38.67792 -106.34778 17054 ft 154 kts 57°
2026-05-07 03:21 38.68204 -106.33500 17042 ft 156 kts 57°
2026-05-07 03:21 38.68614 -106.32219 17024 ft 155 kts 58°
2026-05-07 03:21 38.69029 -106.30936 17049 ft 157 kts 57°
2026-05-07 03:22 38.69437 -106.29658 17024 ft 153 kts 58°
2026-05-07 03:22 38.69840 -106.28410 17057 ft 155 kts 58°
2026-05-07 03:22 38.70255 -106.27127 17053 ft 156 kts 58°
2026-05-07 03:22 38.70670 -106.25834 17065 ft 157 kts 58°
2026-05-07 03:23 38.71089 -106.24529 17059 ft 159 kts 58°
2026-05-07 03:23 38.71506 -106.23232 17034 ft 155 kts 57°
2026-05-07 03:23 38.71908 -106.21970 16992 ft 150 kts 57°
2026-05-07 03:23 38.72289 -106.20765 16973 ft 141 kts 57°
2026-05-07 03:24 38.72657 -106.19624 16992 ft 137 kts 56°
2026-05-07 03:24 38.73019 -106.18504 16989 ft 136 kts 56°
2026-05-07 03:24 38.73381 -106.17381 16999 ft 137 kts 56°
2026-05-07 03:24 38.73743 -106.16254 16991 ft 137 kts 56°
2026-05-07 03:25 38.74097 -106.15144 17000 ft 136 kts 56°
2026-05-07 03:25 38.74455 -106.14025 17002 ft 136 kts 56°
2026-05-07 03:25 38.74817 -106.12899 17019 ft 138 kts 56°
2026-05-07 03:25 38.75184 -106.11755 17020 ft 140 kts 57°
2026-05-07 03:26 38.75555 -106.10592 17019 ft 142 kts 57°
2026-05-07 03:26 38.75933 -106.09410 17022 ft 145 kts 57°
2026-05-07 03:26 38.76317 -106.08205 17012 ft 147 kts 57°
2026-05-07 03:26 38.76705 -106.06990 17012 ft 148 kts 57°
2026-05-07 03:27 38.77102 -106.05767 17010 ft 147 kts 55°
2026-05-07 03:27 38.77697 -106.04764 17000 ft 140 kts 40°
2026-05-07 03:27 38.78119 -106.04133 17006 ft 141 kts 41°
2026-05-07 03:27 38.78753 -106.03166 17015 ft 143 kts 41°
2026-05-07 03:28 38.79397 -106.02186 17005 ft 144 kts 41°
2026-05-07 03:28 38.80044 -106.01196 17004 ft 145 kts 41°
2026-05-07 03:28 38.80695 -106.00202 17000 ft 146 kts 41°
2026-05-07 03:28 38.81347 -105.99203 17002 ft 146 kts 40°
2026-05-07 03:29 38.82000 -105.98205 16996 ft 146 kts 40°
2026-05-07 03:29 38.82653 -105.97205 16981 ft 146 kts 40°
2026-05-07 03:29 38.83303 -105.96210 16978 ft 145 kts 40°
2026-05-07 03:29 38.83952 -105.95218 16974 ft 145 kts 40°
2026-05-07 03:30 38.84600 -105.94225 16966 ft 145 kts 40°
2026-05-07 03:30 38.85250 -105.93229 16826 ft 146 kts 40°
2026-05-07 03:30 38.85894 -105.92242 16801 ft 146 kts 40°
2026-05-07 03:30 38.86548 -105.91240 16805 ft 147 kts 40°
2026-05-07 03:31 38.87204 -105.90235 16803 ft 147 kts 40°
2026-05-07 03:31 38.87864 -105.89222 16803 ft 147 kts 40°
2026-05-07 03:31 38.88520 -105.88216 16801 ft 147 kts 40°
2026-05-07 03:31 38.89177 -105.87207 16804 ft 147 kts 40°
2026-05-07 03:32 38.89834 -105.86198 16807 ft 148 kts 40°
2026-05-07 03:32 38.90493 -105.85185 16807 ft 148 kts 40°
2026-05-07 03:32 38.91152 -105.84171 16805 ft 148 kts 41°
2026-05-07 03:32 38.91812 -105.83156 16805 ft 148 kts 41°
2026-05-07 03:33 38.92473 -105.82139 16806 ft 148 kts 40°
2026-05-07 03:33 38.93132 -105.81124 16806 ft 148 kts 40°
2026-05-07 03:33 38.93792 -105.80107 16806 ft 148 kts 40°
2026-05-07 03:33 38.94451 -105.79091 16805 ft 148 kts 41°
2026-05-07 03:34 38.95103 -105.78088 16796 ft 148 kts 40°
2026-05-07 03:34 38.95773 -105.77055 16793 ft 149 kts 40°
2026-05-07 03:34 38.96437 -105.76031 16795 ft 149 kts 40°
2026-05-07 03:34 38.97101 -105.75007 16791 ft 149 kts 40°
2026-05-07 03:35 38.97768 -105.73979 16800 ft 150 kts 40°
2026-05-07 03:35 38.98429 -105.72959 16797 ft 150 kts 40°
2026-05-07 03:35 38.99097 -105.71926 16791 ft 150 kts 40°
2026-05-07 03:35 38.99764 -105.70895 16793 ft 150 kts 40°
2026-05-07 03:36 39.00431 -105.69865 16793 ft 150 kts 40°
2026-05-07 03:36 39.01097 -105.68837 16789 ft 149 kts 40°
2026-05-07 03:36 39.01761 -105.67809 16793 ft 149 kts 40°
2026-05-07 03:36 39.02424 -105.66784 16793 ft 149 kts 40°
2026-05-07 03:37 39.03086 -105.65760 16792 ft 149 kts 40°
2026-05-07 03:37 39.03747 -105.64738 16791 ft 148 kts 40°
2026-05-07 03:37 39.04410 -105.63712 16838 ft 149 kts 41°
2026-05-07 03:37 39.05075 -105.62683 16828 ft 150 kts 41°
2026-05-07 03:38 39.05742 -105.61650 16826 ft 150 kts 41°
2026-05-07 03:38 39.06406 -105.60620 16895 ft 150 kts 41°
2026-05-07 03:38 39.07070 -105.59591 16894 ft 149 kts 41°
2026-05-07 03:38 39.07723 -105.58579 16895 ft 149 kts 41°
2026-05-07 03:39 39.08391 -105.57541 16893 ft 148 kts 41°
2026-05-07 03:39 39.09051 -105.56518 16887 ft 148 kts 41°
2026-05-07 03:39 39.09698 -105.55514 16898 ft 148 kts 41°
2026-05-07 03:39 39.10358 -105.54492 16903 ft 149 kts 41°
2026-05-07 03:40 39.11020 -105.53464 16901 ft 149 kts 41°
2026-05-07 03:40 39.11679 -105.52438 16895 ft 148 kts 41°
2026-05-07 03:40 39.12334 -105.51420 16894 ft 147 kts 41°
2026-05-07 03:40 39.13001 -105.50403 16821 ft 152 kts 40°
2026-05-07 03:41 39.13722 -105.49395 16703 ft 150 kts 37°
2026-05-07 03:41 39.14417 -105.48403 16529 ft 149 kts 40°
2026-05-07 03:41 39.15051 -105.47343 16351 ft 151 kts 45°
2026-05-07 03:41 39.15669 -105.46269 16174 ft 148 kts 43°
2026-05-07 03:42 39.16309 -105.45244 15992 ft 147 kts 41°
2026-05-07 03:42 39.16965 -105.44217 15824 ft 148 kts 41°
2026-05-07 03:42 39.17612 -105.43206 15653 ft 145 kts 41°
2026-05-07 03:42 39.18261 -105.42198 15476 ft 147 kts 41°
2026-05-07 03:43 39.18900 -105.41200 15303 ft 142 kts 41°
2026-05-07 03:43 39.19527 -105.40221 15138 ft 143 kts 41°
2026-05-07 03:43 39.20174 -105.39216 14963 ft 147 kts 41°
2026-05-07 03:43 39.20833 -105.38188 14809 ft 149 kts 41°
2026-05-07 03:44 39.21483 -105.37172 14648 ft 148 kts 42°
2026-05-07 03:44 39.22132 -105.36158 14486 ft 146 kts 42°
2026-05-07 03:44 39.22781 -105.35145 14324 ft 148 kts 41°
2026-05-07 03:44 39.23442 -105.34114 14173 ft 150 kts 41°
2026-05-07 03:45 39.24095 -105.33089 14079 ft 146 kts 41°
2026-05-07 03:45 39.24730 -105.32095 14021 ft 142 kts 41°
2026-05-07 03:45 39.25356 -105.31117 14021 ft 141 kts 40°
2026-05-07 03:45 39.25982 -105.30140 14018 ft 141 kts 40°
2026-05-07 03:46 39.26607 -105.29164 14005 ft 140 kts 40°
2026-05-07 03:46 39.27226 -105.28192 14018 ft 140 kts 39°
2026-05-07 03:46 39.27846 -105.27227 13999 ft 141 kts 39°
2026-05-07 03:46 39.28468 -105.26252 14003 ft 141 kts 39°
2026-05-07 03:47 39.29100 -105.25261 14001 ft 141 kts 39°
2026-05-07 03:47 39.29718 -105.24293 14017 ft 142 kts 39°
2026-05-07 03:47 39.30350 -105.23304 14019 ft 143 kts 39°
2026-05-07 03:47 39.30988 -105.22302 13993 ft 146 kts 39°
2026-05-07 03:48 39.31654 -105.21268 13870 ft 151 kts 39°
2026-05-07 03:48 39.32318 -105.20221 13715 ft 151 kts 39°
2026-05-07 03:48 39.32988 -105.19165 13557 ft 152 kts 40°
2026-05-07 03:48 39.33660 -105.18110 13408 ft 154 kts 40°
2026-05-07 03:49 39.34347 -105.17032 13257 ft 156 kts 40°
2026-05-07 03:49 39.35039 -105.15945 13108 ft 157 kts 41°
2026-05-07 03:49 39.35730 -105.14852 12947 ft 157 kts 41°
2026-05-07 03:49 39.36421 -105.13767 12791 ft 156 kts 40°
2026-05-07 03:50 39.37103 -105.12697 12634 ft 156 kts 40°
2026-05-07 03:50 39.37791 -105.11615 12480 ft 155 kts 41°
2026-05-07 03:50 39.38477 -105.10535 12332 ft 156 kts 41°
2026-05-07 03:50 39.39170 -105.09447 12181 ft 158 kts 41°
2026-05-07 03:51 39.39869 -105.08345 12038 ft 159 kts 41°
2026-05-07 03:51 39.40574 -105.07235 11910 ft 160 kts 41°
2026-05-07 03:51 39.41276 -105.06127 11753 ft 159 kts 41°
2026-05-07 03:51 39.41974 -105.05024 11606 ft 158 kts 41°
2026-05-07 03:52 39.42674 -105.03923 11454 ft 158 kts 41°
2026-05-07 03:52 39.43367 -105.02829 11301 ft 157 kts 42°
2026-05-07 03:52 39.44058 -105.01739 11154 ft 157 kts 42°
2026-05-07 03:52 39.44769 -105.00685 10987 ft 151 kts 30°
2026-05-07 03:53 39.45716 -105.00327 10819 ft 141 kts 359°
2026-05-07 03:53 39.46694 -105.00207 10678 ft 142 kts 360°
2026-05-07 03:53 39.47663 -105.00082 10537 ft 142 kts 359°
2026-05-07 03:53 39.48648 -104.99955 10353 ft 142 kts 360°
2026-05-07 03:54 39.49636 -104.99827 10213 ft 143 kts 360°
2026-05-07 03:54 39.50620 -104.99685 10071 ft 142 kts 360°
2026-05-07 03:54 39.51603 -104.99527 9923 ft 142 kts 360°
2026-05-07 03:54 39.52575 -104.99513 9756 ft 139 kts 350°
2026-05-07 03:55 39.53545 -104.99578 9597 ft 141 kts 352°
2026-05-07 03:55 39.54508 -104.99625 9441 ft 141 kts 352°
2026-05-07 03:55 39.55491 -104.99675 9282 ft 141 kts 352°
2026-05-07 03:55 39.56476 -104.99728 9128 ft 142 kts 352°
2026-05-07 03:56 39.57453 -104.99785 8974 ft 142 kts 352°
2026-05-07 03:56 39.58446 -104.99845 8821 ft 143 kts 352°
2026-05-07 03:56 39.59444 -104.99910 8666 ft 144 kts 352°
2026-05-07 03:56 39.60445 -104.99977 8558 ft 144 kts 352°
2026-05-07 03:57 39.61451 -105.00047 8404 ft 145 kts 352°
2026-05-07 03:57 39.62464 -105.00119 8250 ft 146 kts 352°
2026-05-07 03:57 39.63478 -105.00196 8100 ft 147 kts 352°
2026-05-07 03:57 39.64501 -105.00278 7949 ft 148 kts 352°
2026-05-07 03:58 39.65527 -105.00362 7801 ft 148 kts 352°
2026-05-07 03:58 39.66557 -105.00448 7649 ft 149 kts 352°
2026-05-07 03:58 39.67590 -105.00537 7498 ft 148 kts 352°
2026-05-07 03:58 39.68563 -105.00127 7275 ft 158 kts 41°
2026-05-07 03:59 39.68984 -104.98816 7097 ft 160 kts 79°
2026-05-07 03:59 39.69172 -104.97406 7004 ft 157 kts 79°
2026-05-07 03:59 39.69364 -104.96031 6953 ft 152 kts 80°
2026-05-07 03:59 39.69455 -104.94684 6925 ft 148 kts 86°
2026-05-07 04:00 39.69520 -104.93380 6906 ft 145 kts 86°
2026-05-07 04:00 39.69595 -104.92091 6903 ft 143 kts 87°
2026-05-07 04:00 39.69690 -104.90808 6899 ft 142 kts 86°
2026-05-07 04:00 39.69791 -104.89530 6904 ft 142 kts 86°
2026-05-07 04:01 39.69893 -104.88260 6898 ft 141 kts 86°
2026-05-07 04:01 39.69749 -104.87064 6830 ft 134 kts 132°
2026-05-07 04:01 39.69016 -104.86498 6903 ft 117 kts 162°
2026-05-07 04:01 39.68279 -104.86054 6903 ft 116 kts 162°
2026-05-07 04:02 39.67534 -104.85680 6890 ft 113 kts 175°
2026-05-07 04:02 39.66758 -104.85589 6897 ft 112 kts 181°
2026-05-07 04:02 39.65979 -104.85522 6899 ft 112 kts 182°
2026-05-07 04:02 39.65195 -104.85472 6904 ft 113 kts 182°
2026-05-07 04:03 39.64407 -104.85430 6901 ft 113 kts 182°
2026-05-07 04:03 39.63622 -104.85390 6898 ft 111 kts 183°
2026-05-07 04:03 39.62843 -104.85352 6849 ft 115 kts 182°
2026-05-07 04:03 39.62055 -104.85297 6692 ft 111 kts 180°
2026-05-07 04:04 39.61322 -104.85244 6536 ft 100 kts 181°
2026-05-07 04:04 39.60660 -104.85248 6373 ft 93 kts 182°
2026-05-07 04:04 39.60023 -104.85219 6205 ft 91 kts 179°
2026-05-07 04:04 39.59395 -104.85198 6047 ft 89 kts 176°
2026-05-07 04:05 39.58774 -104.85169 5918 ft 90 kts 177°
2026-05-07 04:05 39.58153 -104.85138 5860 ft 86 kts 177°
2026-05-07 04:05 39.57681 -104.85115 5846 ft 36 kts 176°
2026-05-07 04:05 39.57476 -104.85106 5849 ft 26 kts 177°
2026-05-07 04:06 39.57320 -104.85095 5848 ft 19 kts 178°
2026-05-07 04:06 39.57209 -104.85093 5848 ft 14 kts 180°
2026-05-07 04:06 39.57106 -104.85086 5846 ft 16 kts 173°
2026-05-07 04:06 39.56992 -104.85051 5843 ft 17 kts 159°
2026-05-07 04:07 39.56897 -104.84980 5841 ft 14 kts 150°
2026-05-07 04:07 39.56869 -104.84914 5839 ft 7 kts 88°
2026-05-07 04:07 39.56888 -104.84876 5840 ft 5 kts
2026-05-07 04:07 39.56922 -104.84878 5842 ft 7 kts 355°
2026-05-07 04:08 39.56991 -104.84880 5844 ft 12 kts
2026-05-07 04:08 39.56990 -104.84825 5843 ft 9 kts 175°
2026-05-07 04:08 39.56975 -104.84848 5843 ft 3 kts 357°
2026-05-07 04:08 39.56980 -104.84848 5843 ft 0 kts